RYR585 EYVI-LIPX

Flight info

Callsign RYR585
Flight time N/A
Altitude 34000
Route UPASI1A/01 UPASI DCT SUWGI DCT GOVEN DCT RIKLU DCT ANELA DCT TEDGO/N0453F350 DCT ELMEM DCT OTRES DCT DIRAB DCT NEVNI
Aircraft B738/M-SDE2E3FGHIRWXY/LB1

Departure

Time N/A
Airport Vilnius International Airport (EYVI)

Arrival

Time 2026-05-01 15:19
Airport Verona Villafranca Valerio Catullo Airport (LIPX)
Time Latitude Longitude Altitude Speed Heading
2026-05-01 13:18 53.91499 21.97545 34275 ft 488 kts 255°
2026-05-01 13:18 53.90336 21.92175 34278 ft 487 kts 255°
2026-05-01 13:18 53.87973 21.81344 34284 ft 486 kts 256°
2026-05-01 13:19 53.85614 21.70603 34282 ft 487 kts 255°
2026-05-01 13:20 53.82035 21.54388 34285 ft 487 kts 255°
2026-05-01 13:20 53.79647 21.43600 34290 ft 488 kts 255°
2026-05-01 13:21 53.76039 21.27411 34290 ft 487 kts 254°
2026-05-01 13:21 53.73624 21.16684 34292 ft 487 kts 254°
2026-05-01 13:22 53.71196 21.05955 34297 ft 487 kts 254°
2026-05-01 13:22 53.68779 20.95298 34295 ft 487 kts 254°
2026-05-01 13:23 53.66329 20.84546 34294 ft 486 kts 254°
2026-05-01 13:23 53.63882 20.73858 34300 ft 488 kts 254°
2026-05-01 13:24 53.61431 20.63210 34300 ft 485 kts 254°
2026-05-01 13:25 53.57730 20.47280 34296 ft 485 kts 254°
2026-05-01 13:25 53.55259 20.36727 34301 ft 487 kts 254°
2026-05-01 13:26 53.52773 20.26125 34300 ft 487 kts 253°
2026-05-01 13:26 53.50282 20.15544 34310 ft 486 kts 253°
2026-05-01 13:27 53.47781 20.04970 34301 ft 485 kts 253°
2026-05-01 13:27 53.44025 19.89212 34310 ft 486 kts 253°
2026-05-01 13:28 53.40241 19.73422 34314 ft 486 kts 253°
2026-05-01 13:29 53.35169 19.52497 34314 ft 484 kts 253°
2026-05-01 13:31 53.27475 19.21097 34316 ft 486 kts 252°
2026-05-01 13:32 53.21014 18.95090 34322 ft 484 kts 252°
2026-05-01 13:33 53.14529 18.69268 34320 ft 483 kts 252°
2026-05-01 13:34 53.09298 18.48623 34303 ft 484 kts 252°
2026-05-01 13:35 53.05366 18.33253 34301 ft 484 kts 251°
2026-05-01 13:36 53.01375 18.17792 34306 ft 484 kts 250°
2026-05-01 13:36 52.97378 18.02404 34305 ft 482 kts 250°
2026-05-01 13:37 52.94730 17.92263 34303 ft 484 kts 250°
2026-05-01 13:37 52.92053 17.82028 34303 ft 483 kts 250°
2026-05-01 13:38 52.88012 17.66678 34310 ft 483 kts 250°
2026-05-01 13:39 52.85327 17.56549 34309 ft 483 kts 250°
2026-05-01 13:39 52.82613 17.46364 34305 ft 483 kts 250°
2026-05-01 13:40 52.79921 17.36288 34315 ft 483 kts 250°
2026-05-01 13:40 52.77196 17.26122 34320 ft 483 kts 249°
2026-05-01 13:41 52.74464 17.16023 34324 ft 482 kts 249°
2026-05-01 13:41 52.71739 17.05999 34323 ft 482 kts 249°
2026-05-01 13:42 52.68953 16.95913 34325 ft 483 kts 246°
2026-05-01 13:42 52.65313 16.86581 34323 ft 487 kts 236°
2026-05-01 13:43 52.61214 16.77769 34321 ft 485 kts 234°
2026-05-01 13:43 52.57068 16.69081 34327 ft 486 kts 234°
2026-05-01 13:44 52.52917 16.60271 34327 ft 484 kts 235°
2026-05-01 13:44 52.48846 16.51500 34327 ft 484 kts 236°
2026-05-01 13:45 52.44798 16.42748 34325 ft 484 kts 236°
2026-05-01 13:45 52.42089 16.36896 34325 ft 483 kts 236°
2026-05-01 13:46 52.36663 16.25215 34322 ft 484 kts 234°
2026-05-01 13:46 52.32605 16.16522 34320 ft 484 kts 234°
2026-05-01 13:47 52.28521 16.07803 34325 ft 482 kts 235°
2026-05-01 13:47 52.24422 15.99091 34327 ft 482 kts 234°
2026-05-01 13:48 52.20335 15.90428 34330 ft 482 kts 234°
2026-05-01 13:48 52.16236 15.81768 34335 ft 482 kts 234°
2026-05-01 13:49 52.12133 15.73131 34339 ft 482 kts 234°
2026-05-01 13:49 52.08040 15.64538 34338 ft 481 kts 234°
2026-05-01 13:50 52.03937 15.55963 34330 ft 481 kts 234°
2026-05-01 13:50 51.99821 15.47392 34328 ft 481 kts 234°
2026-05-01 13:51 51.95694 15.38815 34333 ft 481 kts 234°
2026-05-01 13:51 51.91568 15.30262 34338 ft 480 kts 233°
2026-05-01 13:52 51.87426 15.21703 34330 ft 480 kts 233°
2026-05-01 13:52 51.83313 15.13247 34327 ft 479 kts 233°
2026-05-01 13:53 51.79177 15.04773 34329 ft 479 kts 233°
2026-05-01 13:53 51.72980 14.92128 34329 ft 479 kts 233°
2026-05-01 13:54 51.68842 14.83713 34341 ft 478 kts 233°
2026-05-01 13:54 51.64695 14.75298 34347 ft 478 kts 233°
2026-05-01 13:55 51.60560 14.66946 34345 ft 478 kts 233°
2026-05-01 13:55 51.56390 14.58558 34345 ft 478 kts 233°
2026-05-01 13:56 51.52245 14.50240 34345 ft 478 kts 233°
2026-05-01 13:56 51.48072 14.41892 34346 ft 477 kts 233°
2026-05-01 13:57 51.43925 14.33624 34347 ft 478 kts 232°
2026-05-01 13:57 51.39733 14.25300 34349 ft 477 kts 232°
2026-05-01 13:58 51.35571 14.17054 34349 ft 477 kts 232°
2026-05-01 13:58 51.31394 14.08810 34348 ft 476 kts 232°
2026-05-01 13:59 51.27196 14.00551 34351 ft 476 kts 232°
2026-05-01 13:59 51.23029 13.92376 34351 ft 476 kts 232°
2026-05-01 14:00 51.18848 13.84197 34353 ft 476 kts 232°
2026-05-01 14:00 51.14643 13.75999 34360 ft 475 kts 232°
2026-05-01 14:01 51.10473 13.67900 34364 ft 473 kts 232°
2026-05-01 14:01 51.06295 13.59811 34360 ft 473 kts 232°
2026-05-01 14:02 51.02096 13.51699 34361 ft 472 kts 232°
2026-05-01 14:02 50.97938 13.43691 34363 ft 472 kts 232°
2026-05-01 14:03 50.93761 13.35680 34357 ft 471 kts 232°
2026-05-01 14:03 50.89611 13.27740 34359 ft 472 kts 231°
2026-05-01 14:04 50.85435 13.19781 34349 ft 471 kts 231°
2026-05-01 14:04 50.81300 13.11978 34343 ft 471 kts 230°
2026-05-01 14:05 50.77093 13.04147 34344 ft 470 kts 230°
2026-05-01 14:05 50.73155 12.96760 34343 ft 470 kts 231°
2026-05-01 14:06 50.68956 12.88863 34342 ft 470 kts 231°
2026-05-01 14:06 50.64777 12.81015 34343 ft 469 kts 231°
2026-05-01 14:07 50.60573 12.73141 34344 ft 470 kts 231°
2026-05-01 14:08 50.54277 12.61393 34344 ft 468 kts 231°
2026-05-01 14:08 50.50060 12.53556 34346 ft 468 kts 231°
2026-05-01 14:09 50.45874 12.45800 34346 ft 469 kts 231°
2026-05-01 14:09 50.41703 12.38095 34348 ft 469 kts 231°
2026-05-01 14:10 50.37482 12.30320 34349 ft 468 kts 230°
2026-05-01 14:10 50.33273 12.22590 34350 ft 467 kts 230°
2026-05-01 14:11 50.29061 12.14880 34352 ft 467 kts 230°
2026-05-01 14:11 50.22718 12.03310 34352 ft 467 kts 230°
2026-05-01 14:12 50.18504 11.95649 34353 ft 467 kts 230°
2026-05-01 14:12 50.14275 11.87990 34347 ft 467 kts 230°
2026-05-01 14:13 50.10746 11.81617 34349 ft 467 kts 230°
2026-05-01 14:13 50.05794 11.72696 34340 ft 465 kts 230°
2026-05-01 14:14 50.01572 11.65113 34336 ft 465 kts 230°
2026-05-01 14:14 49.97322 11.57505 34327 ft 465 kts 230°
2026-05-01 14:15 49.93093 11.49953 34317 ft 466 kts 230°
2026-05-01 14:15 49.88832 11.42368 34317 ft 465 kts 230°
2026-05-01 14:16 49.84558 11.34784 34316 ft 465 kts 230°
2026-05-01 14:16 49.80346 11.27330 34315 ft 464 kts 230°
2026-05-01 14:17 49.76072 11.19788 34315 ft 463 kts 230°
2026-05-01 14:17 49.71831 11.12326 34314 ft 464 kts 230°
2026-05-01 14:18 49.67594 11.04894 34313 ft 464 kts 230°
2026-05-01 14:18 49.64037 10.98671 34313 ft 464 kts 230°
2026-05-01 14:19 49.59061 10.89988 34309 ft 464 kts 230°
2026-05-01 14:19 49.54847 10.82658 34308 ft 464 kts 230°
2026-05-01 14:20 49.48443 10.71560 34311 ft 463 kts 230°
2026-05-01 14:21 49.44165 10.64172 34315 ft 462 kts 230°
2026-05-01 14:21 49.39884 10.56801 34317 ft 463 kts 230°
2026-05-01 14:22 49.33472 10.45802 34318 ft 462 kts 230°
2026-05-01 14:22 49.29180 10.38463 34315 ft 462 kts 230°
2026-05-01 14:23 49.24903 10.31170 34306 ft 462 kts 229°
2026-05-01 14:23 49.20623 10.23893 34302 ft 462 kts 229°
2026-05-01 14:24 49.16368 10.16678 34303 ft 461 kts 229°
2026-05-01 14:24 49.12096 10.09453 34304 ft 461 kts 229°
2026-05-01 14:25 49.07789 10.02191 34304 ft 461 kts 229°
2026-05-01 14:25 49.03522 9.95016 34294 ft 461 kts 229°
2026-05-01 14:26 48.97064 9.84199 34297 ft 461 kts 229°
2026-05-01 14:27 48.92768 9.77028 34293 ft 460 kts 229°
2026-05-01 14:27 48.88532 9.69974 34296 ft 460 kts 229°
2026-05-01 14:28 48.82071 9.59251 34286 ft 461 kts 229°
2026-05-01 14:28 48.77763 9.52126 34282 ft 460 kts 229°
2026-05-01 14:29 48.73428 9.45017 34278 ft 460 kts 227°
2026-05-01 14:30 48.65535 9.37045 34280 ft 462 kts 198°
2026-05-01 14:30 48.62442 9.35945 34280 ft 463 kts 189°
2026-05-01 14:31 48.52913 9.36562 34275 ft 461 kts 161°
2026-05-01 14:31 48.47154 9.40731 34408 ft 463 kts 149°
2026-05-01 14:31 48.44449 9.43220 34834 ft 461 kts 146°
2026-05-01 14:32 48.41798 9.45827 35249 ft 459 kts 145°
2026-05-01 14:32 48.36492 9.51245 35272 ft 460 kts 144°
2026-05-01 14:33 48.31224 9.56644 35271 ft 458 kts 144°
2026-05-01 14:33 48.25956 9.61980 35272 ft 460 kts 145°
2026-05-01 14:34 48.20615 9.67337 35274 ft 460 kts 145°
2026-05-01 14:34 48.15324 9.72611 35276 ft 459 kts 145°
2026-05-01 14:35 48.10046 9.77850 35279 ft 459 kts 145°
2026-05-01 14:35 48.04738 9.83103 35282 ft 459 kts 145°
2026-05-01 14:36 47.99425 9.88347 35276 ft 460 kts 145°
2026-05-01 14:36 47.94088 9.93602 35280 ft 462 kts 145°
2026-05-01 14:37 47.88771 9.98823 35282 ft 462 kts 145°
2026-05-01 14:37 47.83408 10.04077 35288 ft 462 kts 144°
2026-05-01 14:38 47.78055 10.09307 35286 ft 461 kts 144°
2026-05-01 14:38 47.72732 10.14495 35286 ft 461 kts 144°
2026-05-01 14:39 47.67353 10.19724 35289 ft 462 kts 144°
2026-05-01 14:39 47.61974 10.24942 35291 ft 463 kts 144°
2026-05-01 14:40 47.56630 10.30111 35303 ft 463 kts 144°
2026-05-01 14:40 47.51257 10.35295 35317 ft 463 kts 144°
2026-05-01 14:41 47.45879 10.40472 35326 ft 463 kts 144°
2026-05-01 14:41 47.40501 10.45633 35341 ft 463 kts 144°
2026-05-01 14:41 47.37640 10.47905 35343 ft 467 kts 157°
2026-05-01 14:42 47.34475 10.48972 35354 ft 470 kts 174°
2026-05-01 14:42 47.27913 10.48963 35352 ft 473 kts 181°
2026-05-01 14:43 47.21343 10.48521 35363 ft 473 kts 181°
2026-05-01 14:43 47.14758 10.48092 35356 ft 473 kts 181°
2026-05-01 14:44 47.08250 10.47734 35335 ft 467 kts 180°
2026-05-01 14:44 46.98375 10.47293 35356 ft 474 kts 180°
2026-05-01 14:45 46.88493 10.46906 35359 ft 474 kts 180°
2026-05-01 14:46 46.81937 10.46654 35351 ft 475 kts 180°
2026-05-01 14:46 46.72042 10.46274 35342 ft 474 kts 180°
2026-05-01 14:47 46.65464 10.46026 35336 ft 474 kts 180°
2026-05-01 14:48 46.55542 10.45648 35334 ft 474 kts 180°
2026-05-01 14:48 46.45692 10.45270 35334 ft 474 kts 180°
2026-05-01 14:49 46.39106 10.45017 35022 ft 470 kts 180°
2026-05-01 14:49 46.32600 10.44772 33746 ft 470 kts 180°
2026-05-01 14:50 46.27124 10.44568 32415 ft 476 kts 180°
2026-05-01 14:50 46.19369 10.44283 30463 ft 484 kts 180°
2026-05-01 14:51 46.16053 10.44159 29857 ft 481 kts 180°
2026-05-01 14:51 46.09428 10.43908 28527 ft 479 kts 180°
2026-05-01 14:52 46.02808 10.43660 27151 ft 476 kts 180°
2026-05-01 14:52 45.99500 10.43536 26460 ft 475 kts 180°
2026-05-01 14:52 45.92966 10.43294 25076 ft 472 kts 180°
2026-05-01 14:53 45.89247 10.43158 24282 ft 470 kts 179°
2026-05-01 14:53 45.85988 10.43037 23581 ft 468 kts 179°
2026-05-01 14:53 45.82777 10.42918 22895 ft 465 kts 179°
2026-05-01 14:53 45.79548 10.42800 22196 ft 463 kts 179°
2026-05-01 14:54 45.76345 10.42683 21492 ft 460 kts 179°
2026-05-01 14:54 45.73131 10.42564 20785 ft 457 kts 179°
2026-05-01 14:54 45.70004 10.42447 20092 ft 455 kts 179°
2026-05-01 14:54 45.66823 10.42329 19388 ft 452 kts 179°
2026-05-01 14:55 45.63727 10.42141 18712 ft 450 kts 181°
2026-05-01 14:55 45.60616 10.41701 18032 ft 448 kts 185°
2026-05-01 14:55 45.57551 10.41092 17344 ft 446 kts 186°
2026-05-01 14:55 45.54471 10.40407 16644 ft 443 kts 187°
2026-05-01 14:56 45.51479 10.39725 15962 ft 440 kts 187°
2026-05-01 14:56 45.48451 10.39045 15263 ft 437 kts 187°
2026-05-01 14:56 45.45451 10.38392 14551 ft 434 kts 186°
2026-05-01 14:56 45.42465 10.37763 13831 ft 432 kts 186°
2026-05-01 14:57 45.39514 10.37157 13136 ft 429 kts 186°
2026-05-01 14:57 45.33659 10.35976 11828 ft 416 kts 186°
2026-05-01 14:57 45.30867 10.35415 11633 ft 392 kts 186°
2026-05-01 14:58 45.28798 10.35097 11567 ft 378 kts 181°
2026-05-01 14:58 45.26465 10.35168 11452 ft 361 kts 169°
2026-05-01 14:58 45.24169 10.36247 11265 ft 341 kts 146°
2026-05-01 14:58 45.22991 10.37474 11163 ft 329 kts 133°
2026-05-01 14:59 45.21479 10.39813 11061 ft 312 kts 126°
2026-05-01 14:59 45.20105 10.42099 10951 ft 301 kts 126°
2026-05-01 14:59 45.19260 10.43486 10890 ft 293 kts 126°
2026-05-01 14:59 45.18201 10.45197 10795 ft 285 kts 127°
2026-05-01 15:00 45.15841 10.49387 10541 ft 260 kts 112°
2026-05-01 15:00 45.15413 10.51751 10335 ft 243 kts 83°
2026-05-01 15:00 45.15834 10.54007 9913 ft 242 kts 59°
2026-05-01 15:01 45.16833 10.55973 9323 ft 250 kts 46°
2026-05-01 15:01 45.18067 10.57768 8731 ft 257 kts 44°
2026-05-01 15:01 45.19338 10.59533 8230 ft 256 kts 44°
2026-05-01 15:01 45.20581 10.61285 7895 ft 252 kts 45°
2026-05-01 15:02 45.21809 10.63063 7260 ft 258 kts 46°
2026-05-01 15:02 45.22237 10.63690 6949 ft 264 kts 46°
2026-05-01 15:02 45.24449 10.66937 5529 ft 281 kts 47°
2026-05-01 15:02 45.25799 10.68886 5109 ft 275 kts 46°
2026-05-01 15:03 45.27144 10.70814 4592 ft 273 kts 46°
2026-05-01 15:03 45.28464 10.72725 4073 ft 269 kts 46°
2026-05-01 15:03 45.29755 10.74551 3529 ft 256 kts 45°
2026-05-01 15:03 45.30986 10.76247 3028 ft 239 kts 46°
2026-05-01 15:04 45.32133 10.77857 2940 ft 225 kts 46°
2026-05-01 15:04 45.33191 10.79363 2966 ft 208 kts 46°
2026-05-01 15:04 45.34191 10.80802 2961 ft 202 kts 47°
2026-05-01 15:04 45.35158 10.82258 2964 ft 202 kts 48°
2026-05-01 15:05 45.36108 10.83703 2967 ft 203 kts 47°
2026-05-01 15:05 45.37093 10.85173 2965 ft 205 kts 47°
2026-05-01 15:05 45.38083 10.86630 2963 ft 204 kts 47°
2026-05-01 15:05 45.39068 10.88082 2962 ft 203 kts 47°
2026-05-01 15:06 45.40043 10.89530 2961 ft 203 kts 48°
2026-05-01 15:06 45.41023 10.90987 2963 ft 203 kts 47°
2026-05-01 15:06 45.41951 10.92498 3137 ft 200 kts 62°
2026-05-01 15:06 45.42270 10.94377 3552 ft 201 kts 95°
2026-05-01 15:07 45.41862 10.96307 3979 ft 212 kts 123°
2026-05-01 15:07 45.40761 10.97733 4396 ft 224 kts 154°
2026-05-01 15:07 45.39204 10.98207 4796 ft 238 kts 181°
2026-05-01 15:07 45.37555 10.97522 4952 ft 264 kts 211°
2026-05-01 15:08 45.36101 10.95899 4973 ft 271 kts 223°
2026-05-01 15:08 45.34731 10.94028 4965 ft 274 kts 223°
2026-05-01 15:08 45.33336 10.92171 4964 ft 274 kts 221°
2026-05-01 15:08 45.31910 10.90370 4966 ft 274 kts 220°
2026-05-01 15:09 45.30452 10.88589 4965 ft 276 kts 219°
2026-05-01 15:09 45.29007 10.86839 4965 ft 275 kts 220°
2026-05-01 15:09 45.27544 10.85066 4965 ft 276 kts 220°
2026-05-01 15:09 45.26065 10.83273 4966 ft 276 kts 220°
2026-05-01 15:10 45.24626 10.81526 4964 ft 270 kts 220°
2026-05-01 15:10 45.21927 10.78254 4961 ft 242 kts 220°
2026-05-01 15:10 45.20671 10.76733 4953 ft 234 kts 220°
2026-05-01 15:11 45.19334 10.75116 4964 ft 234 kts 220°
2026-05-01 15:11 45.16865 10.72118 4976 ft 231 kts 222°
2026-05-01 15:11 45.15838 10.70394 4951 ft 231 kts 242°
2026-05-01 15:12 45.15503 10.68175 4945 ft 231 kts 276°
2026-05-01 15:12 45.16855 10.64253 4863 ft 213 kts 316°
2026-05-01 15:12 45.17936 10.62891 4694 ft 204 kts 330°
2026-05-01 15:13 45.21705 10.62974 4083 ft 178 kts 39°
2026-05-01 15:14 45.23429 10.65450 3904 ft 178 kts 47°
2026-05-01 15:14 45.24290 10.66717 3800 ft 179 kts 47°
2026-05-01 15:14 45.26059 10.69218 3478 ft 181 kts 47°
2026-05-01 15:15 45.27803 10.71771 3129 ft 179 kts 47°
2026-05-01 15:15 45.29512 10.74275 2947 ft 176 kts 47°
2026-05-01 15:16 45.31245 10.76802 2758 ft 178 kts 47°
2026-05-01 15:16 45.32937 10.79259 2287 ft 172 kts 47°
2026-05-01 15:17 45.34568 10.81622 1824 ft 159 kts 47°
2026-05-01 15:18 45.36829 10.84943 1074 ft 156 kts 45°
2026-05-01 15:18 45.37617 10.86000 745 ft 160 kts 44°
2026-05-01 15:19 45.39741 10.89107 235 ft 90 kts 45°
2026-05-01 15:19 45.40246 10.89859 235 ft 27 kts 51°
2026-05-01 15:19 45.40302 10.90069 234 ft 13 kts 75°
2026-05-01 15:20 45.40331 10.90230 235 ft 5 kts 79°
2026-05-01 15:20 45.40320 10.90285 236 ft 6 kts 123°
2026-05-01 15:20 45.40283 10.90344 236 ft 9 kts 135°
2026-05-01 15:21 45.40236 10.90430 235 ft 9 kts 96°
2026-05-01 15:21 45.40262 10.90480 235 ft 5 kts 44°
2026-05-01 15:21 45.40282 10.90493 236 ft 2 kts 19°
2026-05-01 15:21 45.40311 10.90509 236 ft 6 kts 38°
2026-05-01 15:22 45.40318 10.90569 237 ft 3 kts 134°
2026-05-01 15:22 45.40309 10.90582 236 ft 1 kts 135°
2026-05-01 15:22 45.40309 10.90583 236 ft 0 kts 135°
2026-05-01 15:23 45.40308 10.90584 236 ft 0 kts 134°
2026-05-01 15:23 45.40304 10.90590 236 ft 0 kts 134°